DateTimeUTC,F1_A11,F1_S11,BsB_S11,BsG_S11,BsR_S11,BbsB_S11,BbsG_S11,BbsR_S11,BaB_A11,BaG_A11,BaR_A11,Tu_S11,T_S11,Uu_S11,U_S11,P_S11,T1_A11
2021-09-03T16:00:00Z,00000200,20000000,,,,,,,-000.43,-000.38,0000.33,20.7,27.1,07.1,04.8,0668.8,31.2
2021-09-03T16:01:00Z,00000200,20000000,,,,,,,0000.10,-000.23,-000.38,20.7,27.1,07.1,04.8,0668.8,31.2
2021-09-03T16:02:00Z,00000200,20000000,,,,,,,0000.03,0000.23,-000.05,20.7,27.0,07.1,04.8,0668.8,31.2
2021-09-03T16:03:00Z,00000200,60000000,,,,,,,-000.16,0000.12,0000.24,20.7,27.1,07.1,04.8,0668.7,31.2
2021-09-03T16:04:00Z,00000200,40000000,0000.57,-000.08,-000.07,0000.07,-000.16,-000.20,0000.06,0000.12,-000.25,20.8,26.9,07.1,04.9,0669.6,31.2
2021-09-03T16:05:00Z,00000200,00000000,0000.25,-000.03,0000.08,0000.97,0000.25,0000.25,0000.04,-000.14,0000.45,20.8,26.9,07.0,04.9,0669.7,31.2
2021-09-03T16:06:00Z,00000200,00000000,-000.23,0000.22,-000.03,0000.57,0000.07,0000.05,0000.17,0000.22,-000.25,20.8,26.9,07.0,04.9,0669.7,31.2
2021-09-03T16:07:00Z,00000200,00000000,0000.06,0000.17,0000.23,-000.10,0000.22,0000.43,0000.21,0000.19,0000.10,20.8,26.9,07.1,04.9,0669.7,31.2
2021-09-03T16:08:00Z,00000200,00000000,0000.38,0000.05,0000.17,0000.18,0000.13,0000.17,-000.16,-000.42,0000.01,20.8,26.8,07.2,05.0,0669.7,31.2
2021-09-03T16:09:00Z,00000200,00000000,-000.14,0000.39,-000.01,0000.11,0000.05,0000.05,0000.11,0000.34,0000.14,20.8,26.8,07.3,05.0,0669.7,31.2
2021-09-03T16:10:00Z,00000200,00000000,-000.25,0000.14,-000.05,0000.50,-000.20,0000.12,-000.04,-000.23,-000.30,20.8,26.9,07.1,05.0,0669.7,31.2
2021-09-03T16:11:00Z,00000200,00000000,0000.49,-000.11,0000.52,0000.49,-000.10,0000.19,0000.03,-000.12,0000.01,20.8,26.9,07.1,04.9,0669.7,31.2
2021-09-03T16:12:00Z,00000200,00000000,-000.23,0000.09,0000.41,0000.23,0000.15,0000.41,0000.25,-000.04,0000.06,20.8,26.8,07.2,05.0,0669.6,31.2
2021-09-03T16:13:00Z,00000200,00000000,0000.90,0000.18,0000.06,-000.05,0000.17,0000.26,-000.32,0000.21,-000.04,20.8,26.8,07.1,04.9,0669.7,31.2
2021-09-03T16:14:00Z,00000200,00000000,0000.07,0000.31,0000.08,0000.23,0000.07,-000.09,-000.17,-000.34,0000.07,20.8,26.8,07.2,05.0,0669.6,31.2
2021-09-03T16:15:00Z,00000200,00000000,0000.14,0000.13,0000.29,-000.42,0000.50,0000.09,0000.33,0000.13,-000.00,20.8,26.8,07.1,04.9,0669.6,31.2
2021-09-03T16:16:00Z,00000200,00000000,-000.09,0000.30,0000.34,0000.52,-000.31,0000.18,-000.15,-000.09,0000.31,20.8,26.8,07.1,04.9,0669.6,31.2
2021-09-03T16:17:00Z,00000200,00000000,0000.87,-000.01,0000.33,0000.84,0000.00,0000.46,0000.08,0000.25,-000.37,20.8,26.8,07.2,05.0,0669.6,31.2
2021-09-03T16:18:00Z,00000200,00000000,0000.26,0000.17,0000.44,0000.37,0000.17,0000.14,0000.10,-000.12,0000.27,20.8,26.8,07.2,05.0,0669.6,31.2
2021-09-03T16:19:00Z,00000200,00000000,0000.17,0000.26,0000.37,0000.62,0000.06,0000.14,0000.05,-000.01,-000.20,20.8,26.8,07.2,05.0,0669.6,31.2
2021-09-03T16:20:00Z,00000200,00000000,0000.20,0000.26,0000.30,-000.22,0000.15,0000.19,-000.24,0000.36,0000.12,20.8,26.8,07.1,04.9,0669.6,31.2
2021-09-03T16:21:00Z,00000200,00000000,-000.08,-000.17,0000.46,-000.21,-000.31,0000.28,0000.15,-000.35,-000.34,20.8,26.8,07.0,04.9,0669.6,31.2
2021-09-03T16:22:00Z,00000200,00000000,0000.45,-000.05,0000.40,0000.70,-000.03,-000.13,0000.07,0000.24,0000.65,20.8,26.8,07.0,04.9,0669.6,31.2
2021-09-03T16:23:00Z,00000200,00000000,0000.14,0000.15,0000.27,0000.39,0000.00,0000.05,-000.15,-000.12,-000.54,20.8,26.8,07.0,04.8,0669.6,31.2
2021-09-03T16:24:00Z,00000200,00000000,0001.05,0000.03,-000.13,0000.02,-000.33,-000.30,-000.22,-000.05,0000.31,20.8,26.8,07.0,04.9,0669.6,31.2
2021-09-03T16:25:00Z,00000200,00000000,-000.00,-000.08,0000.28,-000.04,0000.04,0000.03,0000.25,0000.13,-000.22,20.8,26.8,06.9,04.8,0669.6,31.2
2021-09-03T16:26:00Z,00000200,00000000,-000.16,-000.21,0000.01,-000.02,0000.01,0000.18,-000.13,-000.35,0000.02,20.8,26.8,06.8,04.7,0669.6,31.2
2021-09-03T16:27:00Z,00000200,00000000,0000.36,-000.22,-000.09,0000.02,-000.00,0000.19,0000.12,0000.19,0000.14,20.8,26.8,06.9,04.8,0669.6,31.2
2021-09-03T16:28:00Z,00000200,00000000,0000.25,0000.28,0000.21,0000.35,0000.09,0000.33,0000.12,0000.14,0000.33,20.8,26.8,06.8,04.8,0669.6,31.2
2021-09-03T16:29:00Z,00000200,00000000,-000.00,0000.34,0000.10,0000.77,0000.24,0000.30,0000.04,-000.21,-000.44,20.8,26.8,06.9,04.8,0669.6,31.2
2021-09-03T16:30:00Z,00000200,00000000,0001.03,0000.18,0000.18,-000.03,-000.05,-000.07,-000.20,0000.14,0000.10,20.8,26.8,06.8,04.7,0669.6,31.2
2021-09-03T16:31:00Z,00000200,00000000,0000.54,-000.10,-000.12,0000.56,0000.22,0000.03,-000.00,0000.26,0000.09,20.8,26.8,06.9,04.8,0669.6,31.2
2021-09-03T16:32:00Z,00000200,00000000,0000.25,0000.20,0000.27,0000.22,-000.16,0000.27,0000.04,-000.57,-000.48,20.8,26.8,06.8,04.8,0669.6,31.2
2021-09-03T16:33:00Z,00000200,00000000,0000.44,0000.31,0000.49,0000.23,-000.15,0000.31,0000.20,0000.33,0000.48,20.8,26.8,06.8,04.7,0669.6,31.2
2021-09-03T16:34:00Z,00000200,00000000,0001.33,0000.43,0000.44,0000.88,0000.18,0000.14,0000.07,0000.12,0000.14,20.8,26.8,06.9,04.8,0669.6,31.2
2021-09-03T16:35:00Z,00000200,00000000,-000.00,0000.40,-000.02,0000.44,-000.01,-000.26,-000.03,0000.12,0000.00,20.8,26.8,06.7,04.7,0669.6,31.2
2021-09-03T16:36:00Z,00000200,00000000,-000.02,0000.08,0000.13,-000.14,0000.16,0000.43,0000.06,-000.03,0000.15,20.9,26.8,06.7,04.7,0669.6,31.2
2021-09-03T16:37:00Z,00000200,00000000,0000.57,0000.33,0000.07,0000.33,-000.01,-000.14,-000.23,-000.44,-000.31,20.9,26.8,06.7,04.7,0669.5,31.2
2021-09-03T16:38:00Z,00000200,00000000,-000.10,0000.20,0000.30,-000.24,-000.04,0000.08,0000.07,0000.39,0000.23,20.9,26.8,06.7,04.7,0669.5,31.2
2021-09-03T16:39:00Z,00000200,00000000,0000.03,0000.34,0000.50,0000.61,-000.41,-000.06,0000.11,0000.49,-000.25,20.9,26.8,06.8,04.7,0669.5,31.2
2021-09-03T16:40:00Z,00000200,00000000,0000.05,-000.05,0000.32,0000.66,0000.50,0000.49,0000.22,-000.24,0000.15,20.9,26.8,06.7,04.7,0669.5,31.2
2021-09-03T16:41:00Z,00000200,00000000,0000.45,-000.09,0000.22,0000.22,0000.15,0000.04,0000.03,-000.18,0000.17,20.8,26.8,06.7,04.7,0669.5,31.2
2021-09-03T16:42:00Z,00000200,00000000,-000.08,0000.02,0000.14,0000.48,-000.08,0000.31,-000.32,0000.10,0000.08,20.9,26.8,06.7,04.7,0669.5,31.2
2021-09-03T16:43:00Z,00000200,00000000,0000.28,-000.14,0000.18,0000.33,0000.20,0000.01,0000.02,-000.20,-000.31,20.9,26.8,06.6,04.6,0669.5,31.2
2021-09-03T16:44:00Z,00000200,00000000,0000.50,-000.14,0000.20,0000.77,0000.10,0000.18,-000.08,0000.40,0000.09,20.9,26.8,06.7,04.7,0669.5,31.2
2021-09-03T16:45:00Z,00000200,00000000,0000.23,0000.54,0000.20,0000.83,0000.36,0000.41,0000.02,-000.28,-000.18,20.9,26.8,06.6,04.6,0669.5,31.2
2021-09-03T16:46:00Z,00000200,00000000,0000.42,0000.25,0000.22,0000.66,0000.02,0000.25,0000.04,-000.21,0000.14,20.9,26.8,06.6,04.6,0669.5,31.2
2021-09-03T16:47:00Z,00000200,00000000,0000.30,0000.35,0000.40,0000.14,0000.01,0000.35,0000.19,0000.16,-000.23,20.9,26.8,06.7,04.7,0669.4,31.2
2021-09-03T16:48:00Z,00000200,00000000,0000.72,0000.18,0000.16,0000.04,-000.12,-000.02,-000.07,0000.01,0000.29,20.9,26.8,06.7,04.7,0669.5,31.2
2021-09-03T16:49:00Z,00000200,00000000,0000.14,0000.34,0000.03,0000.37,-000.03,0000.16,-000.09,-000.25,0000.01,20.9,26.8,06.7,04.7,0669.4,31.2
2021-09-03T16:50:00Z,00000200,00000000,0000.04,0000.15,0000.24,0000.09,0000.15,0000.14,0000.10,0000.13,0000.03,20.9,26.8,06.6,04.6,0669.4,31.2
2021-09-03T16:51:00Z,00000200,00000000,0000.50,0000.25,0000.57,0000.24,0000.32,0000.44,0000.09,0000.18,-000.13,20.9,26.8,06.6,04.6,0669.4,31.2
2021-09-03T16:52:00Z,00000200,00000000,0000.57,0000.17,0000.26,-000.01,-000.27,0000.20,-000.33,0000.00,0000.33,20.9,26.8,06.6,04.6,0669.4,31.2
2021-09-03T16:53:00Z,00000200,00000000,0000.32,0000.23,0000.39,0000.15,-000.04,0000.38,0000.31,0000.33,-000.35,20.9,26.8,06.5,04.6,0669.5,31.2
2021-09-03T16:54:00Z,00000200,00000000,0000.60,0000.21,0000.56,0000.21,-000.02,-000.01,0000.16,-000.15,0000.02,20.9,26.8,06.5,04.6,0669.4,31.2
2021-09-03T16:55:00Z,00000200,00000000,0000.24,0000.08,0000.23,0000.59,-000.10,0000.03,-000.01,0000.17,0000.43,20.9,26.8,06.5,04.5,0669.4,31.3
2021-09-03T16:56:00Z,00000200,00000000,0000.37,-000.05,0000.07,0000.59,-000.02,-000.07,-000.24,-000.15,-000.17,20.9,26.8,06.5,04.5,0669.5,31.3
2021-09-03T16:57:00Z,00000200,40000000,,,,,,,0000.16,-000.16,0000.01,20.9,26.9,06.9,04.8,0669.4,31.3
2021-09-03T16:58:00Z,00000200,60000000,,,,,,,-000.21,0000.17,0000.10,20.7,26.9,06.6,04.5,0668.5,31.2
2021-09-03T16:59:00Z,00000200,20000000,,,,,,,0000.00,-000.17,-000.14,20.7,27.0,06.4,04.4,0668.5,31.2
